TimeCDT,TemperatureF,Dew PointF,Humidity,Sea Level PressureIn,VisibilityMPH,Wind Direction,Wind SpeedMPH,Gust SpeedMPH,PrecipitationIn,Events,Conditions,WindDirDegrees,DateUTC
12:53 AM,57.9,55.0,90,30.16,10.0,ESE,4.6,-,N/A,,Clear,110,2011-11-01 05:53:00
1:53 AM,55.9,54.0,93,30.15,10.0,East,5.8,-,N/A,,Clear,100,2011-11-01 06:53:00
2:53 AM,55.4,53.6,94,30.14,10.0,ENE,3.5,-,N/A,,Clear,70,2011-11-01 07:53:00
3:53 AM,52.0,50.0,93,30.14,10.0,ENE,3.5,-,N/A,,Clear,60,2011-11-01 08:53:00
4:53 AM,51.1,48.9,92,30.12,10.0,NE,4.6,-,N/A,,Clear,50,2011-11-01 09:53:00
5:53 AM,51.1,50.0,96,30.12,10.0,ENE,5.8,-,N/A,,Clear,60,2011-11-01 10:53:00
6:53 AM,51.1,50.0,96,30.13,10.0,NE,5.8,-,N/A,,Clear,50,2011-11-01 11:53:00
7:53 AM,51.8,50.0,94,30.14,10.0,NE,5.8,-,N/A,,Clear,50,2011-11-01 12:53:00
8:53 AM,59.0,55.9,90,30.15,10.0,ENE,3.5,-,N/A,,Clear,60,2011-11-01 13:53:00
9:53 AM,70.0,62.1,76,30.16,10.0,East,4.6,-,N/A,,Clear,90,2011-11-01 14:53:00
10:53 AM,75.0,61.0,62,30.15,10.0,SE,12.7,18.4,0.01,,Scattered Clouds,130,2011-11-01 15:53:00
11:53 AM,77.0,61.0,58,30.14,10.0,SSE,13.8,-,N/A,,Partly Cloudy,150,2011-11-01 16:53:00
12:53 PM,78.1,62.1,58,30.12,10.0,SSE,11.5,-,N/A,,Partly Cloudy,160,2011-11-01 17:53:00
1:53 PM,78.1,62.1,58,30.09,10.0,SE,13.8,-,N/A,,Clear,140,2011-11-01 18:53:00
2:53 PM,78.1,61.0,56,30.08,10.0,SE,10.4,-,N/A,,Clear,140,2011-11-01 19:53:00
3:53 PM,78.1,61.0,56,30.07,10.0,SE,17.3,-,N/A,,Clear,140,2011-11-01 20:53:00
4:53 PM,77.0,61.0,58,30.07,10.0,SSE,12.7,-,N/A,,Partly Cloudy,150,2011-11-01 21:53:00
5:53 PM,73.4,60.8,65,30.07,10.0,SE,10.4,-,N/A,,Clear,130,2011-11-01 22:53:00
6:53 PM,71.1,61.0,70,30.07,10.0,SE,6.9,-,N/A,,Clear,130,2011-11-01 23:53:00
7:53 PM,69.1,62.1,78,30.07,10.0,ESE,8.1,-,N/A,,Clear,120,2011-11-02 00:53:00
8:53 PM,66.0,62.1,87,30.08,10.0,ESE,6.9,-,N/A,,Clear,110,2011-11-02 01:53:00
10:53 PM,68.0,63.0,84,30.07,10.0,ESE,9.2,-,N/A,,Clear,120,2011-11-02 03:53:00